Weather History for Price, UT

Change the Weather History Date:

Thursday, August 14, 2014

  Actual Average Record
Temperature  
Mean Temperature 68 °F -  
Max Temperature 78 °F 84 °F 97 °F (1971)
Min Temperature 60 °F 55 °F 40 °F (1980)
Cooling Degree Days 2    
Growing Degree Days 18 (Base 50)    
Moisture  
Dew Point 57 °F    
Average Humidity 74    
Maximum Humidity 93    
Minimum Humidity 46    
Precipitation  
Precipitation 0.02 in - - ()
Sea Level Pressure  
Sea Level Pressure 30.12 in    
Wind  
Wind Speed 2 mph (SSE)    
Max Wind Speed 10 mph    
Max Gust Speed -    
Visibility 10 miles    
Events Rain , Thunderstorm    
Averages and records for this station are not official NWS values.
T = Trace of Precipitation, MM = Missing Value Source: NWS Daily Summary

Daily Weather History Graph

Daily Weather History Graph

Search for Another Location

Airport:

Trip Planner

Search our weather history database for the weather conditions in past years. The results will help you decide how hot, cold, wet, or windy it might be!

Date:

Astronomy

Aug. 14, 2014 Rise Set
Actual Time 6:34 AM MDT 8:20 PM MDT
Civil Twilight 6:05 AM MDT 8:48 PM MDT
Nautical Twilight 5:30 AM MDT 9:23 PM MDT
Astronomical Twilight 4:52 AM MDT 10:01 PM MDT
Moon 10:46 PM MDT (8/14) 11:13 AM MDT (8/14)
Length of Visible Light 14h 43m
Length of Day
13h 45m
Waning Gibbous, 78% of the Moon is Illuminated
Aug 14
Waning Gibbous
Aug 17
Last Quarter
Aug 25
New
Sep 2
First Quarter
Sep 8
Full

Hourly Weather History & Observations

Time (MDT) Temp. Dew Point Humidity Pressure Visibility Wind Dir Wind Speed Gust Speed Precip Events Conditions
12:09 AM 61.0 °F 57.0 °F 87% 30.20 in 10.0 mi North 3.5 mph - N/A   Scattered Clouds
12:53 AM 60.1 °F 55.9 °F 86% 30.04 in 10.0 mi NE 4.6 mph - N/A   Clear
1:53 AM 61.0 °F 55.9 °F 83% 30.03 in 10.0 mi Calm Calm - N/A   Overcast
2:13 AM 62.1 °F 55.9 °F 80% 30.20 in 10.0 mi Calm Calm - N/A   Overcast
2:53 AM 61.0 °F 55.9 °F 83% 30.02 in 10.0 mi Calm Calm - N/A   Overcast
3:08 AM 62.1 °F 57.0 °F 84% 30.20 in 10.0 mi Calm Calm - N/A   Overcast
3:31 AM 62.1 °F 57.0 °F 84% 30.19 in 10.0 mi Calm Calm - N/A   Overcast
3:53 AM 62.1 °F 57.0 °F 84% 30.02 in 10.0 mi Calm Calm - N/A   Overcast
4:53 AM 62.1 °F 57.9 °F 86% 30.02 in 10.0 mi ESE 4.6 mph - N/A   Overcast
5:53 AM 62.1 °F 57.9 °F 86% 30.02 in 10.0 mi Calm Calm - N/A   Overcast
6:22 AM 62.1 °F 59.0 °F 90% 30.21 in 10.0 mi Calm Calm - N/A   Overcast
6:34 AM 62.1 °F 57.9 °F 86% 30.22 in 10.0 mi Calm Calm - N/A   Overcast
6:53 AM 62.1 °F 59.0 °F 90% 30.05 in 8.0 mi Calm Calm - 0.01 in Rain Light Rain
7:37 AM 62.1 °F 59.0 °F 90% 30.22 in 10.0 mi East 3.5 mph - 0.00 in   Mostly Cloudy
7:53 AM 62.1 °F 59.0 °F 90% 30.06 in 10.0 mi Calm Calm - 0.00 in   Overcast
8:00 AM 62.1 °F 59.0 °F 90% 30.23 in 8.0 mi Calm Calm - N/A   Overcast
8:17 AM 62.1 °F 60.1 °F 93% 30.23 in 7.0 mi Calm Calm - N/A   Overcast
8:22 AM 62.1 °F 60.1 °F 93% 30.24 in 8.0 mi Calm Calm - N/A   Overcast
8:27 AM 63.0 °F 60.1 °F 90% 30.24 in 8.0 mi Calm Calm - N/A   Overcast
8:44 AM 63.0 °F 59.0 °F 87% 30.24 in 10.0 mi Calm Calm - N/A   Overcast
8:51 AM 64.4 °F 60.8 °F 88% 30.24 in 10.0 mi Calm Calm - N/A   Overcast
8:53 AM 64.0 °F 60.1 °F 87% 30.06 in 10.0 mi Calm Calm - N/A   Overcast
9:01 AM 63.0 °F 59.0 °F 87% 30.24 in 10.0 mi South 3.5 mph - N/A   Overcast
9:16 AM 63.0 °F 60.1 °F 90% 30.25 in 10.0 mi SSW 3.5 mph - N/A   Overcast
9:24 AM 64.0 °F 59.0 °F 84% 30.25 in 10.0 mi Calm Calm - N/A   Mostly Cloudy
9:53 AM 66.0 °F 60.1 °F 81% 30.07 in 10.0 mi WSW 4.6 mph - N/A   Overcast
10:16 AM 66.0 °F 59.0 °F 78% 30.25 in 10.0 mi Calm Calm - N/A   Overcast
10:23 AM 66.9 °F 59.0 °F 76% 30.25 in 10.0 mi SW 5.8 mph - N/A   Overcast
10:51 AM 68.0 °F 57.2 °F 68% 30.25 in 10.0 mi Calm Calm - N/A   Overcast
10:53 AM 69.1 °F 57.9 °F 68% 30.06 in 10.0 mi Variable 4.6 mph - N/A   Overcast
11:04 AM 69.1 °F 57.9 °F 68% 30.25 in 10.0 mi Variable 3.5 mph - N/A   Scattered Clouds
11:29 AM 70.0 °F 57.9 °F 65% 30.24 in 10.0 mi SW 4.6 mph - N/A   Mostly Cloudy
11:53 AM 71.1 °F 57.0 °F 61% 30.05 in 10.0 mi SW 4.6 mph - N/A   Mostly Cloudy
12:45 PM 73.0 °F 55.9 °F 55% 30.24 in 10.0 mi South 6.9 mph - N/A   Overcast
12:53 PM 73.9 °F 55.9 °F 53% 30.04 in 10.0 mi South 8.1 mph - N/A   Overcast
1:00 PM 73.9 °F 55.9 °F 53% 30.23 in 10.0 mi SSE 10.4 mph - N/A   Mostly Cloudy
1:53 PM 75.0 °F 55.0 °F 50% 30.00 in 10.0 mi Calm Calm - N/A   Mostly Cloudy
2:53 PM 75.9 °F 55.0 °F 48% 29.97 in 10.0 mi SE 8.1 mph - N/A   Mostly Cloudy
3:43 PM 75.9 °F 55.0 °F 48% 30.18 in 10.0 mi SE 6.9 mph - N/A Thunderstorm Overcast
3:53 PM 75.9 °F 55.9 °F 50% 29.97 in 10.0 mi South 9.2 mph - 0.00 in Rain , Thunderstorm Light Rain
4:39 PM 75.9 °F 54.0 °F 46% 30.17 in 10.0 mi Calm Calm - 0.00 in Thunderstorm Thunderstorm
4:53 PM 72.0 °F 60.1 °F 66% 29.98 in 10.0 mi SW 6.9 mph - 0.01 in Rain , Thunderstorm Light Thunderstorms and Rain
5:51 PM 69.8 °F 57.2 °F 64% 30.18 in 10.0 mi Calm Calm - 0.00 in   Partly Cloudy
5:53 PM 70.0 °F 57.9 °F 65% 29.99 in 10.0 mi Calm Calm - 0.00 in   Partly Cloudy
6:53 PM 75.0 °F 55.9 °F 51% 29.94 in 10.0 mi ESE 6.9 mph - N/A   Scattered Clouds
7:53 PM 73.0 °F 55.0 °F 53% 29.96 in 10.0 mi ESE 6.9 mph - N/A   Mostly Cloudy
8:53 PM 69.1 °F 57.0 °F 65% 29.97 in 10.0 mi Calm Calm - N/A   Partly Cloudy
9:53 PM 66.0 °F 55.9 °F 70% 30.00 in 10.0 mi NNE 4.6 mph - N/A   Clear
10:53 PM 64.0 °F 54.0 °F 70% 30.00 in 10.0 mi NNE 5.8 mph - N/A   Clear
11:53 PM 64.0 °F 53.1 °F 67% 29.99 in 10.0 mi North 6.9 mph - N/A   Clear